User: anonymous   Login
Location: Unspecified
(0.0000°N, 0.0000°E)
Time: 20:11:00
(UTC+02:00)
Language:

ARIANE 44L R/B - Orbit

View from above orbital plane
View from above orbital plane
View from above satellite
View from above satellite

Ground track
Ground track

The orbit data is extracted from the following two-line orbital elements,

1 26901U 01039B   14297.35468244  .00007278  00000-0  24657-2 0  1431
2 26901 007.2045 265.0757 6969338 092.1884 014.2374 02.67058602117080
Epoch (UTC): 24 October 2014 08:30:44
Eccentricity: 0.6969338
inclination: 7.2045°
perigee height: 272 km
apogee height: 30860 km
right ascension of ascending node: 265.0757°
argument of perigee: 92.1884°
revolutions per day: 2.67058602
mean anomaly at epoch: 14.2374°
orbit number at epoch: 11708

The dashed part of the orbit path shows where the satellite is in the earth's shadow,  

DLR